Flag for U.S.A. Weather past 2 weeks in Denver, Colorado, U.S.A.

Now
53 °F

Clear.


Feels Like: 50 °F
Forecast: 52 / 83 °F
Wind: 9 mph from South

Location: Buckley Air Force Base

Current Time: Sep 16, 2014 at 5:32:19 AM

Latest Report: Sep 16, 2014 at 4:58 AM


Visibility: 10 mi

Pressure: 30.01 "Hg

Humidity: 74%

Dew point: 45 °F

Location of DenverLocation

Historic Weather in Denver — Graph

°F

Denver temperature yesterday

Maximum temperature yesterday: 74 °F (at 4:58 PM)
Minimum temperature yesterday: 47 °F (at 6:58 AM)
Average temperature yesterday: 59 °F

Past Weeks' High & Low Weather Summary

 TemperatureHumidityPressure
High92 °F (Sep 3, 3:58 PM)100% (Sep 6, 4:58 AM)30.51 "Hg (Sep 6, 4:58 AM)
Low32 °F (Sep 12, 5:58 AM)11% (Sep 3, 3:58 PM)29.59 "Hg (Sep 3, 5:58 PM)
Average61 °F63%30.00 "Hg
* Reported Sep 1 3:58 AM — Sep 16 3:58 AM, Denver, Weather by CustomWeather, © 2014

Note: Actual official high and low records may vary slightly from our data, if they occured in-between our weather recording intervals... More about our weather records

Advertising

Denver weather history for previous 24 hours

 ConditionsComfort  
Time TempWeatherWind HumidityBarometerVisibility
3:58 AM
Sep 16
55 °FClear.9 mph71%30.02 "Hg10 mi
2:58 AM56 °FClear.10 mph72%30.02 "Hg10 mi
1:58 AM56 °FClear.14 mph76%30.04 "Hg10 mi
12:58 AM57 °FClear.14 mph76%30.06 "Hg10 mi
11:58 PM
Sep 15
56 °FClear.9 mph80%30.09 "Hg10 mi
10:58 PM58 °FClear.9 mph75%30.11 "Hg10 mi
9:58 PM60 °FClear.9 mph71%30.13 "Hg10 mi
8:58 PM61 °FPassing clouds.8 mph69%30.13 "Hg10 mi
7:58 PM62 °FScattered clouds.2 mph63%30.13 "Hg10 mi
6:58 PM67 °FBroken clouds.7 mph56%30.12 "Hg10 mi
5:58 PM72 °FScattered clouds.10 mph47%30.10 "Hg10 mi
4:58 PM74 °FPassing clouds.2 mph45%30.08 "Hg10 mi
3:58 PM74 °FPassing clouds.9 mph45%30.10 "Hg10 mi
2:58 PM72 °FPassing clouds.7 mph36%30.11 "Hg10 mi
1:58 PM69 °FPassing clouds.5 mph38%30.15 "Hg10 mi
12:58 PM66 °FScattered clouds.2 mph44%30.18 "Hg10 mi
11:58 AM64 °FPassing clouds.6 mph49%30.17 "Hg10 mi
10:58 AM60 °FPassing clouds.2 mph49%30.20 "Hg10 mi
9:58 AM56 °FPassing clouds.3 mph69%30.22 "Hg10 mi
8:58 AM52 °FScattered clouds.3 mph85%30.23 "Hg10 mi
7:58 AM47 °FScattered clouds.5 mph97%30.22 "Hg10 mi
6:58 AM47 °FPassing clouds.2 mph99%30.21 "Hg10 mi
5:58 AM49 °FPassing clouds.7 mph92%30.17 "Hg10 mi
Weather by CustomWeather, © 2014

See weather overviewHow to use our weather pages